,,,PA_Meas_PMT16A,,PR_Meas_QMR101_102,,RH_Meas_QMH101,,SR_Meas_QMS101,,TA_Meas_QMH101,,GenWind,,GenWind,
date,time,status,PA,status,PR,status,RH,status,SR,status,TA,status,DirAvg,status,SpdAvg,
2009-05-12, 00:00:05,VALID,1008.36,VALID,0,VALID,87.3988,VALID,0,VALID,24.9218,VALID,53,VALID,0,
2009-05-12, 00:01:05,VALID,1008.34,VALID,0,VALID,87.3683,VALID,0.105969,VALID,24.9004,VALID,53,VALID,0,
2009-05-12, 00:02:05,VALID,1008.31,VALID,0,VALID,87.3225,VALID,0.105969,VALID,24.9004,VALID,53,VALID,0,
2009-05-12, 00:03:05,VALID,1008.28,VALID,0,VALID,87.2767,VALID,0,VALID,24.8809,VALID,53,VALID,0,
2009-05-12, 00:04:05,VALID,1008.28,VALID,0,VALID,87.3149,VALID,0,VALID,24.842,VALID,53,VALID,0,
2009-05-12, 00:05:05,VALID,1008.27,VALID,0,VALID,87.3759,VALID,0.105969,VALID,24.8225,VALID,53,VALID,0,
2009-05-12, 00:06:05,VALID,1008.25,VALID,0,VALID,87.3835,VALID,0.105969,VALID,24.803,VALID,53,VALID,0,
2009-05-12, 00:07:05,VALID,1008.26,VALID,0,VALID,87.4521,VALID,0,VALID,24.7835,VALID,53,VALID,0,
2009-05-12, 00:08:05,VALID,1008.25,VALID,0,VALID,87.5208,VALID,0,VALID,24.7835,VALID,53,VALID,0,
2009-05-12, 00:09:05,VALID,1008.25,VALID,0,VALID,87.6275,VALID,0.105969,VALID,24.7835,VALID,53,VALID,0,
2009-05-12, 00:10:05,VALID,1008.23,VALID,0,VALID,87.658,VALID,0,VALID,24.7621,VALID,53,VALID,0,
2009-05-12, 00:11:05,VALID,1008.22,VALID,0,VALID,87.6352,VALID,0.105969,VALID,24.7835,VALID,53,VALID,0,
2009-05-12, 00:12:05,VALID,1008.21,VALID,0,VALID,87.658,VALID,0.105969,VALID,24.7835,VALID,53,VALID,0,
2009-05-12, 00:13:05,VALID,1008.18,VALID,0,VALID,87.6047,VALID,0.105969,VALID,24.764,VALID,53,VALID,0,
2009-05-12, 00:14:05,VALID,1008.13,VALID,0,VALID,87.6047,VALID,0,VALID,24.7445,VALID,53,VALID,0,
2009-05-12, 00:15:05,VALID,1008.1,VALID,0,VALID,87.597,VALID,0.105969,VALID,24.7055,VALID,53,VALID,0,
2009-05-12, 00:16:05,VALID,1008.11,VALID,0,VALID,87.6199,VALID,0.105969,VALID,24.7055,VALID,53,VALID,0,
2009-05-12, 00:17:05,VALID,1008.04,VALID,0,VALID,87.6275,VALID,0,VALID,24.7055,VALID,53,VALID,0,
2009-05-12, 00:18:05,VALID,1008.04,VALID,0,VALID,87.6733,VALID,0,VALID,24.6879,VALID,53,VALID,0,
2009-05-12, 00:19:05,VALID,1008,VALID,0,VALID,87.658,VALID,0,VALID,24.6276,VALID,53,VALID,0,
2009-05-12, 00:20:05,VALID,1008.02,VALID,0,VALID,87.6275,VALID,0.105969,VALID,24.5886,VALID,53,VALID,0,
2009-05-12, 00:21:05,VALID,1008.02,VALID,0,VALID,87.6504,VALID,0.105969,VALID,24.5691,VALID,76,VALID,0,
2009-05-12, 00:22:05,VALID,1008.02,VALID,0,VALID,87.7267,VALID,0,VALID,24.5301,VALID,76,VALID,0,
2009-05-12, 00:23:05,VALID,1008.03,VALID,0,VALID,87.8716,VALID,0.105969,VALID,24.5496,VALID,76,VALID,0,
2009-05-12, 00:24:05,VALID,1008.04,VALID,0,VALID,88.0164,VALID,0.105969,VALID,24.5691,VALID,78,VALID,0,
2009-05-12, 00:25:05,VALID,1008.1,VALID,0,VALID,88.108,VALID,0.105969,VALID,24.5886,VALID,95,VALID,0,
2009-05-12, 00:26:05,VALID,1008.08,VALID,0,VALID,88.169,VALID,0,VALID,24.6294,VALID,99,VALID,0,
2009-05-12, 00:27:05,VALID,1008.09,VALID,0,VALID,88.169,VALID,0,VALID,24.6276,VALID,99,VALID,0,
2009-05-12, 00:28:05,VALID,1008.11,VALID,0,VALID,88.1385,VALID,0.105969,VALID,24.6471,VALID,99,VALID,0,
2009-05-12, 00:29:05,VALID,1008.06,VALID,0,VALID,88.0851,VALID,0.105969,VALID,24.6471,VALID,99,VALID,0,
2009-05-12, 00:30:05,VALID,1008.08,VALID,0,VALID,88.0012,VALID,0.105969,VALID,24.6471,VALID,98,VALID,0,
2009-05-12, 00:31:05,VALID,1008.07,VALID,0,VALID,87.9478,VALID,0.105969,VALID,24.6666,VALID,69,VALID,0,
2009-05-12, 00:32:05,VALID,1008.03,VALID,0,VALID,87.8639,VALID,0.105969,VALID,24.686,VALID,69,VALID,0,
2009-05-12, 00:33:05,VALID,1008.02,VALID,0,VALID,87.8258,VALID,0.105969,VALID,24.6666,VALID,69,VALID,0,
2009-05-12, 00:34:05,VALID,1008.01,VALID,0,VALID,87.78,VALID,0.105969,VALID,24.686,VALID,74,VALID,0,
2009-05-12, 00:35:05,VALID,1008,VALID,0,VALID,87.7267,VALID,0.105969,VALID,24.7055,VALID,84,VALID,0,
2009-05-12, 00:36:05,VALID,1007.99,VALID,0,VALID,87.7038,VALID,0.105969,VALID,24.7055,VALID,85,VALID,0,
2009-05-12, 00:37:05,VALID,1008,VALID,0,VALID,87.6657,VALID,0.105969,VALID,24.7055,VALID,85,VALID,0,
2009-05-12, 00:38:05,VALID,1007.99,VALID,0,VALID,87.6504,VALID,0,VALID,24.686,VALID,85,VALID,0,
2009-05-12, 00:39:05,VALID,1007.97,VALID,0,VALID,87.6428,VALID,0.105969,VALID,24.686,VALID,85,VALID,0,
2009-05-12, 00:40:05,VALID,1008,VALID,0,VALID,87.6352,VALID,0.105969,VALID,24.686,VALID,85,VALID,0,
2009-05-12, 00:41:05,VALID,1008.03,VALID,0,VALID,87.658,VALID,0.105969,VALID,24.6647,VALID,85,VALID,0,
2009-05-12, 00:42:05,VALID,1008.04,VALID,0,VALID,87.658,VALID,0,VALID,24.686,VALID,85,VALID,0,
2009-05-12, 00:43:05,VALID,1008.01,VALID,0,VALID,87.658,VALID,0,VALID,24.6666,VALID,85,VALID,0,
2009-05-12, 00:44:05,VALID,1008.01,VALID,0,VALID,87.6657,VALID,0.105969,VALID,24.686,VALID,85,VALID,0,
2009-05-12, 00:45:05,VALID,1008.04,VALID,0,VALID,87.6885,VALID,0.105969,VALID,24.686,VALID,85,VALID,0,
2009-05-12, 00:46:05,VALID,1008.01,VALID,0,VALID,87.6885,VALID,0,VALID,24.6879,VALID,85,VALID,0,
2009-05-12, 00:47:05,VALID,1008.03,VALID,0,VALID,87.6657,VALID,0.105969,VALID,24.686,VALID,85,VALID,0,
2009-05-12, 00:48:05,VALID,1008.03,VALID,0,VALID,87.6885,VALID,0.105969,VALID,24.686,VALID,85,VALID,0,
2009-05-12, 00:49:05,VALID,1008.04,VALID,0,VALID,87.7038,VALID,0,VALID,24.6471,VALID,85,VALID,0,
2009-05-12, 00:50:05,VALID,1008.04,VALID,0,VALID,87.6885,VALID,0,VALID,24.6666,VALID,85,VALID,0,
2009-05-12, 00:51:05,VALID,1008.04,VALID,0,VALID,87.6885,VALID,0.105969,VALID,24.6471,VALID,85,VALID,0,
2009-05-12, 00:52:05,VALID,1008.05,VALID,0,VALID,87.6504,VALID,0,VALID,24.6684,VALID,85,VALID,0,
2009-05-12, 00:53:05,VALID,1008.01,VALID,0,VALID,87.6123,VALID,0,VALID,24.6471,VALID,85,VALID,0,
2009-05-12, 00:54:05,VALID,1008,VALID,0,VALID,87.6275,VALID,0,VALID,24.6684,VALID,85,VALID,0,
2009-05-12, 00:55:05,VALID,1008,VALID,0,VALID,87.6275,VALID,0,VALID,24.6276,VALID,85,VALID,0,
2009-05-12, 00:56:04,VALID,1007.95,VALID,0,VALID,87.5818,VALID,0,VALID,24.6294,VALID,85,VALID,0,
2009-05-12, 00:57:04,VALID,1007.93,VALID,0,VALID,87.5665,VALID,0,VALID,24.5886,VALID,85,VALID,0,
2009-05-12, 00:58:04,VALID,1007.92,VALID,0,VALID,87.5589,VALID,0,VALID,24.5691,VALID,85,VALID,0,
2009-05-12, 00:59:04,VALID,1007.9,VALID,0,VALID,87.5665,VALID,0,VALID,24.5691,VALID,85,VALID,0,
2009-05-12, 01:00:04,VALID,1007.87,VALID,0,VALID,87.5665,VALID,0.105969,VALID,24.5496,VALID,85,VALID,0,
2009-05-12, 01:01:04,VALID,1007.86,VALID,0,VALID,87.597,VALID,0,VALID,24.571,VALID,85,VALID,0,
2009-05-12, 01:02:04,VALID,1007.87,VALID,0,VALID,87.6047,VALID,0.105969,VALID,24.5496,VALID,85,VALID,0,
2009-05-12, 01:03:04,VALID,1007.86,VALID,0,VALID,87.6199,VALID,0.105969,VALID,24.5301,VALID,85,VALID,0,
2009-05-12, 01:04:04,VALID,1007.86,VALID,0,VALID,87.6275,VALID,0,VALID,24.5106,VALID,85,VALID,0,
2009-05-12, 01:05:04,VALID,1007.87,VALID,0,VALID,87.6428,VALID,0.105969,VALID,24.5106,VALID,85,VALID,0,
2009-05-12, 01:06:04,VALID,1007.86,VALID,0,VALID,87.6809,VALID,0.105969,VALID,24.4911,VALID,85,VALID,0,
2009-05-12, 01:07:04,VALID,1007.85,VALID,0,VALID,87.719,VALID,0,VALID,24.4911,VALID,85,VALID,0,
2009-05-12, 01:08:04,VALID,1007.85,VALID,0,VALID,87.719,VALID,0.105969,VALID,24.4717,VALID,85,VALID,0,
2009-05-12, 01:09:04,VALID,1007.81,VALID,0,VALID,87.7495,VALID,0.105969,VALID,24.4717,VALID,85,VALID,0,
2009-05-12, 01:10:04,VALID,1007.83,VALID,0,VALID,87.7953,VALID,0.105969,VALID,24.4717,VALID,85,VALID,0,
2009-05-12, 01:11:04,VALID,1007.79,VALID,0,VALID,87.8029,VALID,0,VALID,24.4522,VALID,85,VALID,0,
2009-05-12, 01:12:04,VALID,1007.79,VALID,0,VALID,87.7648,VALID,0.105969,VALID,24.4327,VALID,85,VALID,0,
2009-05-12, 01:13:04,VALID,1007.8,VALID,0,VALID,87.7495,VALID,0.105969,VALID,24.4132,VALID,85,VALID,0,
2009-05-12, 01:14:04,VALID,1007.82,VALID,0,VALID,87.7648,VALID,0.105969,VALID,24.4132,VALID,85,VALID,0,
2009-05-12, 01:15:04,VALID,1007.81,VALID,0,VALID,87.8029,VALID,0,VALID,24.3956,VALID,85,VALID,0,
2009-05-12, 01:16:04,VALID,1007.82,VALID,0,VALID,87.8029,VALID,0,VALID,24.3761,VALID,85,VALID,0,
2009-05-12, 01:17:04,VALID,1007.85,VALID,0,VALID,87.8411,VALID,0,VALID,24.3547,VALID,85,VALID,0,
2009-05-12, 01:18:04,VALID,1007.85,VALID,0,VALID,87.9097,VALID,0,VALID,24.3566,VALID,85,VALID,0,
2009-05-12, 01:19:04,VALID,1007.84,VALID,0,VALID,87.9554,VALID,0,VALID,24.3371,VALID,85,VALID,0,
2009-05-12, 01:20:04,VALID,1007.85,VALID,0,VALID,88.0241,VALID,0,VALID,24.3371,VALID,85,VALID,0,
2009-05-12, 01:21:04,VALID,1007.84,VALID,0,VALID,88.047,VALID,0,VALID,24.3176,VALID,85,VALID,0,
2009-05-12, 01:22:04,VALID,1007.81,VALID,0,VALID,88.0927,VALID,0,VALID,24.2981,VALID,85,VALID,0,
2009-05-12, 01:23:04,VALID,1007.78,VALID,0,VALID,88.1461,VALID,0,VALID,24.3176,VALID,85,VALID,0,
2009-05-12, 01:24:04,VALID,1007.75,VALID,0,VALID,88.1995,VALID,0,VALID,24.3176,VALID,85,VALID,0,
2009-05-12, 01:25:04,VALID,1007.75,VALID,0,VALID,88.2376,VALID,0,VALID,24.2963,VALID,85,VALID,0,
2009-05-12, 01:26:04,VALID,1007.77,VALID,0,VALID,88.2757,VALID,0,VALID,24.2768,VALID,85,VALID,0,
2009-05-12, 01:27:04,VALID,1007.8,VALID,0,VALID,88.3139,VALID,0,VALID,24.2981,VALID,85,VALID,0,
2009-05-12, 01:28:04,VALID,1007.8,VALID,0,VALID,88.3444,VALID,0,VALID,24.2768,VALID,85,VALID,0,
2009-05-12, 01:29:04,VALID,1007.81,VALID,0,VALID,88.3672,VALID,0,VALID,24.2786,VALID,85,VALID,0,
2009-05-12, 01:30:04,VALID,1007.81,VALID,0,VALID,88.3672,VALID,0.105969,VALID,24.2573,VALID,85,VALID,0,
2009-05-12, 01:31:04,VALID,1007.83,VALID,0,VALID,88.3749,VALID,0.105969,VALID,24.236,VALID,85,VALID,0,
2009-05-12, 01:32:04,VALID,1007.82,VALID,0,VALID,88.3977,VALID,0.105969,VALID,24.2573,VALID,85,VALID,0,
2009-05-12, 01:33:04,VALID,1007.85,VALID,0,VALID,88.4359,VALID,0.105969,VALID,24.2165,VALID,85,VALID,0,
2009-05-12, 01:34:04,VALID,1007.82,VALID,0,VALID,88.4359,VALID,0.105969,VALID,24.236,VALID,85,VALID,0,
2009-05-12, 01:35:04,VALID,1007.81,VALID,0,VALID,88.4587,VALID,0.105969,VALID,24.2573,VALID,85,VALID,0,
2009-05-12, 01:36:04,VALID,1007.83,VALID,0,VALID,88.4435,VALID,0.105969,VALID,24.2573,VALID,85,VALID,0,
2009-05-12, 01:37:04,VALID,1007.85,VALID,0,VALID,88.4511,VALID,0.105969,VALID,24.2573,VALID,82,VALID,0,
2009-05-12, 01:38:04,VALID,1007.87,VALID,0,VALID,88.413,VALID,0.105969,VALID,24.2768,VALID,81,VALID,0,
2009-05-12, 01:39:04,VALID,1007.87,VALID,0,VALID,88.3901,VALID,0.105969,VALID,24.2768,VALID,81,VALID,0,
2009-05-12, 01:40:04,VALID,1007.88,VALID,0,VALID,88.3291,VALID,0.105969,VALID,24.2768,VALID,81,VALID,0,
2009-05-12, 01:41:04,VALID,1007.91,VALID,0,VALID,88.3291,VALID,0.105969,VALID,24.2555,VALID,81,VALID,0,
2009-05-12, 01:42:04,VALID,1007.9,VALID,0,VALID,88.2757,VALID,0.105969,VALID,24.2963,VALID,81,VALID,0,
2009-05-12, 01:43:04,VALID,1007.89,VALID,0,VALID,88.2528,VALID,0.105969,VALID,24.2768,VALID,81,VALID,0,
2009-05-12, 01:44:04,VALID,1007.88,VALID,0,VALID,88.2528,VALID,0.105969,VALID,24.2963,VALID,63,VALID,0,
2009-05-12, 01:45:04,VALID,1007.88,VALID,0,VALID,88.2452,VALID,0,VALID,24.3176,VALID,63,VALID,0,
2009-05-12, 01:46:04,VALID,1007.85,VALID,0,VALID,88.2376,VALID,0,VALID,24.3158,VALID,63,VALID,0,
2009-05-12, 01:47:04,VALID,1007.87,VALID,0,VALID,88.1918,VALID,0.105969,VALID,24.3371,VALID,63,VALID,0,
2009-05-12, 01:48:04,VALID,1007.82,VALID,0,VALID,88.1461,VALID,0,VALID,24.3352,VALID,63,VALID,0,
2009-05-12, 01:49:04,VALID,1007.79,VALID,0,VALID,88.1003,VALID,0,VALID,24.3566,VALID,63,VALID,0,
2009-05-12, 01:50:04,VALID,1007.76,VALID,0,VALID,88.0775,VALID,0,VALID,24.3566,VALID,63,VALID,0,
2009-05-12, 01:51:04,VALID,1007.73,VALID,0,VALID,88.0622,VALID,0,VALID,24.3761,VALID,63,VALID,0,
2009-05-12, 01:52:04,VALID,1007.69,VALID,0,VALID,88.0241,VALID,0,VALID,24.3566,VALID,63,VALID,0,
2009-05-12, 01:53:04,VALID,1007.69,VALID,0,VALID,88.0164,VALID,0.105969,VALID,24.3352,VALID,63,VALID,0,
2009-05-12, 01:54:04,VALID,1007.66,VALID,0,VALID,87.9707,VALID,0,VALID,24.3158,VALID,63,VALID,0,
2009-05-12, 01:55:04,VALID,1007.64,VALID,0,VALID,87.9326,VALID,0,VALID,24.3371,VALID,63,VALID,0,
2009-05-12, 01:56:04,VALID,1007.64,VALID,0,VALID,87.9326,VALID,0,VALID,24.3176,VALID,63,VALID,0,
2009-05-12, 01:57:04,VALID,1007.65,VALID,0,VALID,87.9478,VALID,0,VALID,24.2981,VALID,63,VALID,0,
2009-05-12, 01:58:04,VALID,1007.63,VALID,0,VALID,87.9326,VALID,0,VALID,24.2768,VALID,63,VALID,0,
2009-05-12, 01:59:04,VALID,1007.62,VALID,0,VALID,87.9859,VALID,0,VALID,24.2786,VALID,63,VALID,0,
2009-05-12, 02:00:04,VALID,1007.63,VALID,0,VALID,88.0012,VALID,0.105969,VALID,24.2165,VALID,63,VALID,0,
2009-05-12, 02:01:04,VALID,1007.63,VALID,0,VALID,88.0393,VALID,0.105969,VALID,24.197,VALID,63,VALID,0,
2009-05-12, 02:02:04,VALID,1007.61,VALID,0,VALID,88.0775,VALID,0.105969,VALID,24.1775,VALID,63,VALID,0,
2009-05-12, 02:03:04,VALID,1007.62,VALID,0,VALID,88.1537,VALID,0.105969,VALID,24.1793,VALID,63,VALID,0,
2009-05-12, 02:04:04,VALID,1007.6,VALID,0,VALID,88.2071,VALID,0.105969,VALID,24.1599,VALID,63,VALID,0,
2009-05-12, 02:05:04,VALID,1007.59,VALID,0,VALID,88.2376,VALID,0.105969,VALID,24.1404,VALID,63,VALID,0,
2009-05-12, 02:06:04,VALID,1007.56,VALID,0,VALID,88.2757,VALID,0,VALID,24.1209,VALID,63,VALID,0,
2009-05-12, 02:07:04,VALID,1007.58,VALID,0,VALID,88.3062,VALID,0.105969,VALID,24.1014,VALID,63,VALID,0,
2009-05-12, 02:08:04,VALID,1007.6,VALID,0,VALID,88.3444,VALID,0.105969,VALID,24.1032,VALID,63,VALID,0,
2009-05-12, 02:09:04,VALID,1007.58,VALID,0,VALID,88.3901,VALID,0.105969,VALID,24.0819,VALID,63,VALID,0,
2009-05-12, 02:10:04,VALID,1007.57,VALID,0,VALID,88.4435,VALID,0.105969,VALID,24.0819,VALID,63,VALID,0,
2009-05-12, 02:11:04,VALID,1007.58,VALID,0,VALID,88.4969,VALID,0.105969,VALID,24.1014,VALID,69,VALID,0,
2009-05-12, 02:12:04,VALID,1007.58,VALID,0,VALID,88.5045,VALID,0,VALID,24.0819,VALID,69,VALID,0,
2009-05-12, 02:13:04,VALID,1007.59,VALID,0,VALID,88.5426,VALID,0,VALID,24.1032,VALID,69,VALID,0,
2009-05-12, 02:14:04,VALID,1007.6,VALID,0,VALID,88.535,VALID,0,VALID,24.1014,VALID,69,VALID,0,
2009-05-12, 02:15:04,VALID,1007.6,VALID,0,VALID,88.5502,VALID,0,VALID,24.1032,VALID,69,VALID,0,
2009-05-12, 02:16:04,VALID,1007.57,VALID,0,VALID,88.535,VALID,0,VALID,24.0819,VALID,69,VALID,0,
2009-05-12, 02:17:04,VALID,1007.54,VALID,0,VALID,88.5426,VALID,0,VALID,24.1227,VALID,73,VALID,0,
2009-05-12, 02:18:04,VALID,1007.53,VALID,0,VALID,88.5121,VALID,0,VALID,24.1227,VALID,73,VALID,0,
2009-05-12, 02:19:04,VALID,1007.52,VALID,0,VALID,88.5197,VALID,0,VALID,24.1422,VALID,73,VALID,0,
2009-05-12, 02:20:04,VALID,1007.5,VALID,0,VALID,88.5121,VALID,0,VALID,24.1209,VALID,73,VALID,0,
2009-05-12, 02:21:04,VALID,1007.49,VALID,0,VALID,88.5121,VALID,0,VALID,24.1617,VALID,74,VALID,0,
2009-05-12, 02:22:04,VALID,1007.49,VALID,0,VALID,88.4892,VALID,0,VALID,24.1617,VALID,90,VALID,0,
2009-05-12, 02:23:04,VALID,1007.48,VALID,0,VALID,88.4511,VALID,0,VALID,24.1793,VALID,73,VALID,0,
2009-05-12, 02:24:04,VALID,1007.5,VALID,0,VALID,88.4359,VALID,0,VALID,24.1812,VALID,68,VALID,0.699609,
2009-05-12, 02:25:04,VALID,1007.51,VALID,0,VALID,88.3977,VALID,0,VALID,24.2202,VALID,61,VALID,0.396875,
2009-05-12, 02:26:04,VALID,1007.46,VALID,0,VALID,88.3749,VALID,0,VALID,24.1988,VALID,63,VALID,0.340234,
2009-05-12, 02:27:04,VALID,1007.45,VALID,0,VALID,88.3291,VALID,0,VALID,24.2396,VALID,90,VALID,0.354297,
2009-05-12, 02:28:04,VALID,1007.43,VALID,0,VALID,88.2376,VALID,0,VALID,24.2396,VALID,90,VALID,0.480469,
2009-05-12, 02:29:04,VALID,1007.46,VALID,0,VALID,88.1766,VALID,0,VALID,24.2396,VALID,88,VALID,0.603516,
2009-05-12, 02:30:04,VALID,1007.44,VALID,0,VALID,88.108,VALID,0,VALID,24.2183,VALID,88,VALID,0.253125,
2009-05-12, 02:31:04,VALID,1007.44,VALID,0,VALID,88.047,VALID,0,VALID,24.2378,VALID,88,VALID,0.0207031,
2009-05-12, 02:32:04,VALID,1007.46,VALID,0,VALID,87.9936,VALID,0,VALID,24.2396,VALID,88,VALID,0.254687,
2009-05-12, 02:33:04,VALID,1007.44,VALID,0,VALID,87.9707,VALID,0,VALID,24.2202,VALID,88,VALID,0,
2009-05-12, 02:34:04,VALID,1007.46,VALID,0,VALID,87.9249,VALID,0,VALID,24.2202,VALID,88,VALID,0,
2009-05-12, 02:35:04,VALID,1007.42,VALID,0,VALID,87.8792,VALID,0,VALID,24.2183,VALID,88,VALID,0,
2009-05-12, 02:36:04,VALID,1007.43,VALID,0,VALID,87.8639,VALID,0,VALID,24.2007,VALID,94,VALID,0.410937,
2009-05-12, 02:37:04,VALID,1007.42,VALID,0,VALID,87.8334,VALID,0,VALID,24.2202,VALID,128,VALID,0.445313,
2009-05-12, 02:38:04,VALID,1007.38,VALID,0,VALID,87.8258,VALID,0,VALID,24.2007,VALID,147,VALID,0.241406,
2009-05-12, 02:39:04,VALID,1007.35,VALID,0,VALID,87.8029,VALID,0,VALID,24.1812,VALID,147,VALID,0.383984,
2009-05-12, 02:40:04,VALID,1007.33,VALID,0,VALID,87.7724,VALID,0,VALID,24.1812,VALID,147,VALID,0.267969,
2009-05-12, 02:41:04,VALID,1007.32,VALID,0,VALID,87.7343,VALID,0,VALID,24.1617,VALID,147,VALID,0,
2009-05-12, 02:42:04,VALID,1007.32,VALID,0,VALID,87.7495,VALID,0,VALID,24.1404,VALID,147,VALID,0.00429688,
2009-05-12, 02:43:04,VALID,1007.27,VALID,0,VALID,87.8182,VALID,0,VALID,24.1617,VALID,147,VALID,0,
2009-05-12, 02:44:04,VALID,1007.28,VALID,0,VALID,87.8182,VALID,0,VALID,24.1422,VALID,147,VALID,0,
2009-05-12, 02:45:04,VALID,1007.26,VALID,0,VALID,87.8258,VALID,0,VALID,24.1422,VALID,147,VALID,0,
2009-05-12, 02:46:04,VALID,1007.24,VALID,0,VALID,87.8334,VALID,0,VALID,24.1422,VALID,147,VALID,0,
2009-05-12, 02:47:04,VALID,1007.23,VALID,0,VALID,87.8487,VALID,0,VALID,24.1209,VALID,147,VALID,0,
2009-05-12, 02:48:04,VALID,1007.2,VALID,0,VALID,87.9097,VALID,0,VALID,24.1227,VALID,128,VALID,0.348828,
2009-05-12, 02:49:04,VALID,1007.22,VALID,0,VALID,87.9631,VALID,0,VALID,24.1422,VALID,82,VALID,0.432813,
2009-05-12, 02:50:04,VALID,1007.22,VALID,0,VALID,88.0241,VALID,0,VALID,24.1227,VALID,70,VALID,0.471875,
2009-05-12, 02:51:04,VALID,1007.21,VALID,0,VALID,88.108,VALID,0,VALID,24.1032,VALID,65,VALID,0.510938,
2009-05-12, 02:52:04,VALID,1007.21,VALID,0,VALID,88.1537,VALID,0,VALID,24.1227,VALID,62,VALID,0.521875,
2009-05-12, 02:53:04,VALID,1007.18,VALID,0,VALID,88.2376,VALID,0,VALID,24.1422,VALID,62,VALID,0.175,
2009-05-12, 02:54:04,VALID,1007.17,VALID,0,VALID,88.2452,VALID,0,VALID,24.1209,VALID,62,VALID,0,
2009-05-12, 02:55:04,VALID,1007.16,VALID,0,VALID,88.2528,VALID,0,VALID,24.1422,VALID,62,VALID,0,
2009-05-12, 02:56:04,VALID,1007.15,VALID,0,VALID,88.2528,VALID,0,VALID,24.1422,VALID,62,VALID,0,
2009-05-12, 02:57:04,VALID,1007.15,VALID,0,VALID,88.2833,VALID,0,VALID,24.1422,VALID,62,VALID,0,
2009-05-12, 02:58:04,VALID,1007.16,VALID,0,VALID,88.2528,VALID,0,VALID,24.1422,VALID,62,VALID,0,
2009-05-12, 02:59:04,VALID,1007.14,VALID,0,VALID,88.2757,VALID,0,VALID,24.1209,VALID,62,VALID,0,
2009-05-12, 03:00:04,VALID,1007.15,VALID,0,VALID,88.2605,VALID,0,VALID,24.1422,VALID,62,VALID,0,
2009-05-12, 03:01:04,VALID,1007.13,VALID,0,VALID,88.2147,VALID,0,VALID,24.1032,VALID,62,VALID,0,
2009-05-12, 03:02:04,VALID,1007.15,VALID,0,VALID,88.1842,VALID,0,VALID,24.0819,VALID,62,VALID,0,
2009-05-12, 03:03:04,VALID,1007.11,VALID,0,VALID,88.1537,VALID,0,VALID,24.0837,VALID,62,VALID,0,
2009-05-12, 03:04:04,VALID,1007.12,VALID,0,VALID,88.1308,VALID,0,VALID,24.0624,VALID,62,VALID,0,
2009-05-12, 03:05:04,VALID,1007.12,VALID,0,VALID,88.1308,VALID,0,VALID,24.0643,VALID,62,VALID,0,
2009-05-12, 03:06:04,VALID,1007.1,VALID,0,VALID,88.1537,VALID,0,VALID,24.0837,VALID,62,VALID,0,
2009-05-12, 03:07:04,VALID,1007.11,VALID,0,VALID,88.2071,VALID,0,VALID,24.0837,VALID,75,VALID,0,
2009-05-12, 03:08:04,VALID,1007.08,VALID,0,VALID,88.2757,VALID,0,VALID,24.1032,VALID,89,VALID,0.741797,
2009-05-12, 03:09:04,VALID,1007.05,VALID,0,VALID,88.3291,VALID,0,VALID,24.1227,VALID,87,VALID,0.666016,
2009-05-12, 03:10:04,VALID,1007.05,VALID,0,VALID,88.3825,VALID,0,VALID,24.1227,VALID,97,VALID,0.879297,
2009-05-12, 03:11:04,VALID,1007.06,VALID,0,VALID,88.3672,VALID,0,VALID,24.1422,VALID,96,VALID,0.606641,
2009-05-12, 03:12:04,VALID,1007.09,VALID,0,VALID,88.352,VALID,0,VALID,24.1422,VALID,136,VALID,0.622656,
2009-05-12, 03:13:04,VALID,1007.11,VALID,0,VALID,88.3825,VALID,0,VALID,24.1617,VALID,169,VALID,0.831641,
2009-05-12, 03:14:04,VALID,1007.12,VALID,0,VALID,88.4206,VALID,0,VALID,24.1812,VALID,151,VALID,0.412891,
2009-05-12, 03:15:04,VALID,1007.13,VALID,0,VALID,88.4435,VALID,0,VALID,24.1599,VALID,151,VALID,0.028125,
2009-05-12, 03:16:04,VALID,1007.16,VALID,0,VALID,88.4664,VALID,0,VALID,24.1812,VALID,151,VALID,0,
2009-05-12, 03:17:04,VALID,1007.15,VALID,0,VALID,88.4816,VALID,0,VALID,24.2007,VALID,151,VALID,0,
2009-05-12, 03:18:04,VALID,1007.12,VALID,0,VALID,88.5197,VALID,0,VALID,24.2007,VALID,151,VALID,0,
2009-05-12, 03:19:04,VALID,1007.13,VALID,0,VALID,88.4969,VALID,0,VALID,24.2007,VALID,151,VALID,0,
2009-05-12, 03:20:04,VALID,1007.09,VALID,0,VALID,88.5655,VALID,0,VALID,24.2202,VALID,151,VALID,0,
2009-05-12, 03:21:04,VALID,1007.09,VALID,0,VALID,88.5731,VALID,0,VALID,24.2202,VALID,151,VALID,0,
2009-05-12, 03:22:04,VALID,1007.08,VALID,0,VALID,88.596,VALID,0,VALID,24.2202,VALID,151,VALID,0,
2009-05-12, 03:23:04,VALID,1007.04,VALID,0,VALID,88.6113,VALID,0,VALID,24.2396,VALID,151,VALID,0.0363281,
2009-05-12, 03:24:04,VALID,1007.04,VALID,0,VALID,88.6341,VALID,0,VALID,24.2591,VALID,151,VALID,0.272266,
2009-05-12, 03:25:04,VALID,1007.06,VALID,0,VALID,88.657,VALID,0,VALID,24.2396,VALID,133,VALID,0.384375,
2009-05-12, 03:26:04,VALID,1007.06,VALID,0,VALID,88.657,VALID,0,VALID,24.2591,VALID,132,VALID,0.172266,
2009-05-12, 03:27:04,VALID,1007.08,VALID,0,VALID,88.6723,VALID,0,VALID,24.2591,VALID,127,VALID,0.416016,
2009-05-12, 03:28:04,VALID,1007.04,VALID,0,VALID,88.6723,VALID,0,VALID,24.2591,VALID,126,VALID,0.567578,
2009-05-12, 03:29:04,VALID,1007.07,VALID,0,VALID,88.6799,VALID,0,VALID,24.2786,VALID,120,VALID,0.643359,
2009-05-12, 03:30:04,VALID,1007.05,VALID,0,VALID,88.6646,VALID,0,VALID,24.2981,VALID,130,VALID,0.7375,
2009-05-12, 03:31:04,VALID,1007.03,VALID,0,VALID,88.6646,VALID,0,VALID,24.2786,VALID,132,VALID,0.633203,
2009-05-12, 03:32:04,VALID,1007,VALID,0,VALID,88.6265,VALID,0,VALID,24.2786,VALID,137,VALID,0.461328,
2009-05-12, 03:33:04,VALID,1007.01,VALID,0,VALID,88.5884,VALID,0,VALID,24.2805,VALID,137,VALID,0.458594,
2009-05-12, 03:34:04,VALID,1006.97,VALID,0,VALID,88.5884,VALID,0,VALID,24.2591,VALID,137,VALID,0.387891,
2009-05-12, 03:35:04,VALID,1006.96,VALID,0,VALID,88.5807,VALID,0,VALID,24.2591,VALID,137,VALID,0.505469,
2009-05-12, 03:36:04,VALID,1006.96,VALID,0,VALID,88.596,VALID,0,VALID,24.2591,VALID,137,VALID,0.488281,
2009-05-12, 03:37:04,VALID,1006.94,VALID,0,VALID,88.6189,VALID,0,VALID,24.2591,VALID,137,VALID,0.520312,
2009-05-12, 03:38:04,VALID,1006.9,VALID,0,VALID,88.6265,VALID,0,VALID,24.2591,VALID,136,VALID,0.271875,
2009-05-12, 03:39:04,VALID,1006.89,VALID,0,VALID,88.6418,VALID,0,VALID,24.2591,VALID,147,VALID,0.334375,
2009-05-12, 03:40:04,VALID,1006.86,VALID,0,VALID,88.6646,VALID,0,VALID,24.2591,VALID,147,VALID,0.102344,
2009-05-12, 03:41:04,VALID,1006.86,VALID,0,VALID,88.6723,VALID,0,VALID,24.2396,VALID,131,VALID,0.264062,
2009-05-12, 03:42:04,VALID,1006.83,VALID,0,VALID,88.6799,VALID,0,VALID,24.2591,VALID,131,VALID,0,
2009-05-12, 03:43:04,VALID,1006.82,VALID,0,VALID,88.6951,VALID,0,VALID,24.2591,VALID,131,VALID,0,
2009-05-12, 03:44:04,VALID,1006.81,VALID,0,VALID,88.6875,VALID,0,VALID,24.2591,VALID,131,VALID,0,
2009-05-12, 03:45:04,VALID,1006.82,VALID,0,VALID,88.6418,VALID,0.105969,VALID,24.2573,VALID,131,VALID,0,
2009-05-12, 03:46:04,VALID,1006.82,VALID,0,VALID,88.6723,VALID,0.105969,VALID,24.2573,VALID,131,VALID,0,
2009-05-12, 03:47:04,VALID,1006.82,VALID,0,VALID,88.657,VALID,0,VALID,24.2573,VALID,131,VALID,0,
2009-05-12, 03:48:04,VALID,1006.81,VALID,0,VALID,88.6341,VALID,0.105969,VALID,24.2573,VALID,131,VALID,0,
2009-05-12, 03:49:04,VALID,1006.79,VALID,0,VALID,88.6341,VALID,0.105969,VALID,24.2768,VALID,131,VALID,0,
2009-05-12, 03:50:04,VALID,1006.8,VALID,0,VALID,88.6113,VALID,0.105969,VALID,24.2768,VALID,131,VALID,0,
2009-05-12, 03:51:04,VALID,1006.8,VALID,0,VALID,88.5884,VALID,0.105969,VALID,24.2768,VALID,131,VALID,0,
2009-05-12, 03:52:04,VALID,1006.79,VALID,0,VALID,88.6036,VALID,0.105969,VALID,24.2573,VALID,131,VALID,0,
2009-05-12, 03:53:04,VALID,1006.82,VALID,0,VALID,88.5807,VALID,0.105969,VALID,24.2981,VALID,131,VALID,0,